"Pseudo-MPEC" for P110LJ8

Created 2020 May 27 21:07:11 UT using Find_Orb

Click here for an explanation of pseudo-MPECs

 
 Astrometry: 
     P110LJ8  C2020 05 21\wZSF4`2`BTUX7w8V$v/Astrometry`V!bOLiE/fYfmx-DaSVtDXF51
     P110LJ8  C2020 05 21K\hOXx6hyxrKh=4.PPuw,redacted;s*PtE]*s(cEQtQOd?(=7.+F51
     P110LJ8  C2020 05 21.Bm^sh[%b?06eG@^)))H5XyBrG9dUDLw8eJZFclick*B@n2here+F51
     P110LJ8  C2020 05 21o-Cyj'for!%_TD[kujs=Qe\F(`BT/-I+,2#fexplanationK10,8F51

Station data:
(F51) Pan-STARRS 1, Haleakala  (N20.707235 W156.255910)  US/Hawaii.
   Observers N. Primak, A. Schultz, S. Watters, J. Thiel, T. Goggia. Measurer
   PS1 Science Consortium. 1.8-m Ritchey-Chrétien + CCD.

Orbital elements:  P110LJ8
   Perihelion 2021 Apr 5.196450 +/- 229 TT =  4:42:53 (JD 2459309.696450)
Epoch 2020 May 21.0 TT = JDT 2458990.5   Earth MOID: 0.4657   Ma: 0.0011
M 231.45299416 +/- 80               (J2000 ecliptic)          AutoNEOCP
n   0.40272066 +/- 0.252            Peri.  164.43471 +/- 90
a   1.81607357 +/- 0.759            Node   225.46423 +/- 46
e   0.2002691 +/- 0.272             Incl.   21.67113 +/- 29
P   2.45/893.90d           H 19.8   G  0.15   U 11.8  SR
q 1.45237005 +/- 0.827    Q 2.17977710 +/- 35.8
From 4 observations 2020 May 21 (55.1 min); mean residual 0".09
Residuals in arcseconds: 
200521 F51  .08-  .10+    200521 F51  .06+  .06-    
200521 F51  .09+  .12-    200521 F51  .07-  .08+    

Ephemerides (geocentric):
Date (UTC) HH   RA              Dec         delta   r     elong  mag " sig PA
---- -- -- --  -------------   -----------  ------ ------ -----  --- ---- ---
2020 05 27 21  16 29 27.524   -05 45 13.43  1.0754 2.0689 164.1 22.1  29d   7
2020 05 27 22  16 29 24.337   -05 44 33.42  1.0754 2.0688 164.1 22.1  29d   7
2020 05 27 23  16 29 21.149   -05 43 53.43  1.0753 2.0687 164.1 22.1  29d   7
2020 05 28 00  16 29 17.961   -05 43 13.46  1.0753 2.0687 164.1 22.1  29d   7
2020 05 28 01  16 29 14.773   -05 42 33.51  1.0752 2.0686 164.1 22.1  30d   6
2020 05 28 02  16 29 11.584   -05 41 53.58  1.0752 2.0685 164.1 22.1  30d   6
2020 05 28 03  16 29 08.395   -05 41 13.67  1.0751 2.0685 164.1 22.1  30d   6
2020 05 28 04  16 29 05.205   -05 40 33.77  1.0751 2.0684 164.1 22.1  30d   6
2020 05 28 05  16 29 02.016   -05 39 53.90  1.0750 2.0683 164.1 22.1  30d   6
2020 05 28 06  16 28 58.826   -05 39 14.04  1.0750 2.0683 164.0 22.1  30d   6
2020 05 28 07  16 28 55.635   -05 38 34.20  1.0749 2.0682 164.0 22.1  30d   6
2020 05 28 08  16 28 52.445   -05 37 54.38  1.0749 2.0681 164.0 22.1  30d   6
2020 05 28 09  16 28 49.254   -05 37 14.58  1.0748 2.0681 164.0 22.1  30d   6
2020 05 28 10  16 28 46.063   -05 36 34.80  1.0748 2.0680 164.0 22.1  30d   6
2020 05 28 11  16 28 42.871   -05 35 55.04  1.0747 2.0679 164.0 22.1  30d   6
2020 05 28 12  16 28 39.680   -05 35 15.29  1.0747 2.0679 164.0 22.1  30d   6
2020 05 28 13  16 28 36.488   -05 34 35.57  1.0747 2.0678 164.0 22.1  30d   6
2020 05 28 14  16 28 33.296   -05 33 55.86  1.0746 2.0677 164.0 22.1  30d   6
2020 05 28 15  16 28 30.103   -05 33 16.18  1.0746 2.0676 163.9 22.1  30d   6
2020 05 28 16  16 28 26.910   -05 32 36.51  1.0745 2.0676 163.9 22.1  30d   6
2020 05 28 17  16 28 23.718   -05 31 56.86  1.0745 2.0675 163.9 22.1  30d   6
2020 05 28 18  16 28 20.525   -05 31 17.24  1.0744 2.0674 163.9 22.1  30d   6
2020 05 28 19  16 28 17.331   -05 30 37.63  1.0744 2.0674 163.9 22.1  30d   6
2020 05 28 20  16 28 14.138   -05 29 58.04  1.0744 2.0673 163.9 22.1  30d   6
2020 05 28 21  16 28 10.944   -05 29 18.47  1.0743 2.0672 163.9 22.1  30d   6
2020 05 28 22  16 28 07.750   -05 28 38.92  1.0743 2.0672 163.8 22.1  30d   6
2020 05 28 23  16 28 04.556   -05 27 59.39  1.0743 2.0671 163.8 22.1  30d   7
2020 05 29 00  16 28 01.362   -05 27 19.88  1.0742 2.0670 163.8 22.1  31d   7
2020 05 29 01  16 27 58.167   -05 26 40.39  1.0742 2.0670 163.8 22.1  31d   7
2020 05 29 02  16 27 54.973   -05 26 00.92  1.0741 2.0669 163.8 22.1  31d   8
2020 05 29 03  16 27 51.778   -05 25 21.47  1.0741 2.0668 163.8 22.1  31d   8
2020 05 29 04  16 27 48.583   -05 24 42.04  1.0741 2.0668 163.8 22.1  32d   8
2020 05 29 05  16 27 45.388   -05 24 02.63  1.0740 2.0667 163.7 22.1  32d   8
2020 05 29 06  16 27 42.193   -05 23 23.24  1.0740 2.0666 163.7 22.1  32d   8
2020 05 29 07  16 27 38.998   -05 22 43.87  1.0740 2.0666 163.7 22.1  33d   8
2020 05 29 08  16 27 35.803   -05 22 04.52  1.0739 2.0665 163.7 22.1  33d   7
2020 05 29 09  16 27 32.607   -05 21 25.19  1.0739 2.0664 163.7 22.1  33d   7
2020 05 29 10  16 27 29.412   -05 20 45.89  1.0739 2.0664 163.7 22.1  33d   7
2020 05 29 11  16 27 26.216   -05 20 06.60  1.0738 2.0663 163.7 22.1  33d   7
2020 05 29 12  16 27 23.021   -05 19 27.33  1.0738 2.0662 163.6 22.1  33d   7
2020 05 29 13  16 27 19.825   -05 18 48.08  1.0738 2.0662 163.6 22.1  33d   7
2020 05 29 14  16 27 16.629   -05 18 08.86  1.0737 2.0661 163.6 22.1  33d   7
2020 05 29 15  16 27 13.433   -05 17 29.65  1.0737 2.0660 163.6 22.1  33d   7
2020 05 29 16  16 27 10.237   -05 16 50.47  1.0737 2.0660 163.6 22.1  34d   6
2020 05 29 17  16 27 07.041   -05 16 11.30  1.0736 2.0659 163.6 22.1  34d   6
2020 05 29 18  16 27 03.845   -05 15 32.16  1.0736 2.0658 163.5 22.1  34d   6
2020 05 29 19  16 27 00.649   -05 14 53.04  1.0736 2.0657 163.5 22.1  34d   6
2020 05 29 20  16 26 57.453   -05 14 13.94  1.0735 2.0657 163.5 22.1  34d   6